Tracking 28327 objects as of 1-Dec-2023
HD Live streaming from Space Station
objects crossing your sky now

ATS 5 AKM

Track ATS 5 AKM now!


NORAD ID: 21052
Int'l Code: 1969-069C
Perigee: 35,861.3 km
Apogee: 36,919.7 km
Inclination: 3.0 °
Period: 1,466.7 minutes
Semi major axis: 42761 km
RCS: 0.003 m2 (small)
Launch date: August 12, 1969
Source: United States (US)
Launch site: AIR FORCE EASTERN TEST RANGE (AFETR)

Note: This is a ROCKET BODY
Your satellite tracking list
Your tracking list is empty




NASA's NSSDC Master Catalog

Two Line Element Set (TLE):
1 21052U 69069C   23334.76806000 -.00000055  00000-0  00000+0 0  9992
2 21052   3.0397 279.8486 0123747 284.7597 230.0372  0.98180153106160
Source of the keplerian elements: AFSPC